This is the latest recevied weather packets stored in our database for station/object KE6JJJ-1. If no packets are shown the sender has not sent any weather packets the latest 10 day(s).
| Time | Temp. | Humidity | Pressure | Rain* | Wind** | Luminosity | Snow |
|---|---|---|---|---|---|---|---|
| 1777642503 | 12.22° C | 87% | 1014.3 hPa | 0 mm | - | 7 W/m² | - |
| 1777640703 | 12.22° C | 87% | 1014.1 hPa | 0 mm | - | 0 W/m² | - |
| 1777638904 | 12.22° C | 87% | 1014.1 hPa | 0 mm | - | 0 W/m² | - |
| 1777637103 | 12.78° C | 87% | 1014 hPa | 0 mm | - | 0 W/m² | - |
| 1777633504 | 12.78° C | 87% | 1014.2 hPa | 0 mm | - | 0 W/m² | - |
| 1777631711 | 12.78° C | 86% | 1014.2 hPa | 0 mm | - | 0 W/m² | - |
| 1777629904 | 12.78° C | 86% | 1014 hPa | 0 mm | - | 0 W/m² | - |
| 1777628103 | 12.78° C | 86% | 1014.1 hPa | 0 mm | - | 0 W/m² | - |
| 1777626303 | 12.78° C | 86% | 1014.3 hPa | 0 mm | - | 0 W/m² | - |
| 1777624503 | 12.78° C | 86% | 1014.7 hPa | 0 mm | - | 0 W/m² | - |
| 1777622704 | 12.78° C | 86% | 1014.8 hPa | 0 mm | - | 0 W/m² | - |
| 1777620904 | 12.78° C | 86% | 1014.8 hPa | 0 mm | - | 0 W/m² | - |
| 1777619103 | 12.78° C | 86% | 1014.8 hPa | 0 mm | - | 0 W/m² | - |
| 1777617303 | 12.78° C | 85% | 1014.5 hPa | 0 mm | - | 0 W/m² | - |
| 1777615504 | 12.78° C | 85% | 1014.5 hPa | 0 mm | - | 0 W/m² | - |
| 1777613703 | 12.78° C | 85% | 1014.5 hPa | 0 mm | - | 0 W/m² | - |
| 1777611903 | 12.78° C | 85% | 1014.5 hPa | 0 mm | - | 0 W/m² | - |
| 1777610103 | 13.33° C | 84% | 1014.2 hPa | 0 mm | - | 0 W/m² | - |
| 1777608304 | 13.33° C | 84% | 1014 hPa | 0 mm | - | 0 W/m² | - |
| 1777606503 | 13.33° C | 83% | 1013.8 hPa | 0 mm | - | 0 W/m² | - |
| 1777604704 | 13.33° C | 82% | 1013.6 hPa | 0 mm | - | 0 W/m² | - |
| 1777602903 | 13.89° C | 80% | 1013.3 hPa | 0 mm | - | 21 W/m² | - |
| 1777601123 | 14.44° C | 79% | 1013.3 hPa | 0 mm | - | 116 W/m² | - |
| 1777599303 | 15.56° C | 76% | 1013.4 hPa | 0 mm | - | 232 W/m² | - |
| 1777597512 | 15.56° C | 77% | 1013.7 hPa | 0 mm | - | 346 W/m² | - |
* Rain latest hour (hover to see other rain measurements)
** Current wind speed in m/s (hover to see current wind gust speed)